W7KKE-3 Weather Reports


Display with metric or nautical units.
time (UTC)temp
F
wind
direction
speed
MPH
gust
MPH
rain 1hr
in
rain 24hr
in
rain mn
in
humidity
%
barometer
mb
20170628135343 59 0 0.0 2.0 0.00 0.00 0.00 88 1018.4
20170628134844 59 319 0.0 2.0 0.00 0.00 0.00 88 1018.5
20170628134343 59 338 0.0 3.0 0.00 0.00 0.00 87 1018.4
20170628133843 59 305 1.0 3.0 0.00 0.00 0.00 87 1018.4
20170628133344 59 298 0.0 3.0 0.00 0.00 0.00 87 1018.3
20170628132844 59 331 1.0 1.0 0.00 0.00 0.00 87 1018.3
20170628132343 59 350 0.0 1.0 0.00 0.00 0.00 87 1018.3
20170628131844 59 313 0.0 3.0 0.00 0.00 0.00 87 1018.3
20170628131343 59 61 0.0 3.0 0.00 0.00 0.00 87 1018.3
20170628130843 59 333 0.0 3.0 0.00 0.00 0.00 87 1018.2
20170628130344 59 305 1.0 1.0 0.00 0.00 0.00 87 1018.2
20170628125843 59 0 0.0 0.0 0.00 0.00 0.00 86 1018.2
20170628125343 59 298 0.0 4.0 0.00 0.00 0.00 86 1018.2
20170628124844 59 340 0.0 4.0 0.00 0.00 0.00 86 1018.3
20170628124343 59 337 0.0 4.0 0.00 0.00 0.00 86 1018.3
20170628123843 59 340 2.0 4.0 0.00 0.00 0.00 85 1018.3
20170628123344 59 326 0.0 2.0 0.00 0.00 0.00 85 1018.3
20170628122844 59 326 0.0 2.0 0.00 0.00 0.00 85 1018.2
20170628122344 59 337 0.0 7.0 0.00 0.00 0.00 85 1018.2
20170628121844 59 344 0.0 7.0 0.00 0.00 0.00 85 1018.2
20170628121343 58 309 1.0 7.0 0.00 0.00 0.00 84 1018.2
20170628120843 59 323 2.0 8.0 0.00 0.00 0.00 84 1018.1
20170628120344 59 294 4.0 8.0 0.00 0.00 0.00 84 1018.1
20170628115843 59 326 3.0 8.0 0.00 0.00 0.00 84 1018.1
20170628115343 59 315 4.0 7.0 0.00 0.00 0.00 84 1018.1
20170628113344 59 319 3.0 6.0 0.00 0.00 0.00 84 1018.0
20170628112843 59 327 3.0 8.0 0.00 0.00 0.00 84 1018.0
20170628112343 59 308 5.0 8.0 0.00 0.00 0.00 84 1017.9
20170628111844 59 302 2.0 8.0 0.00 0.00 0.00 84 1017.9
20170628111343 59 308 2.0 7.0 0.00 0.00 0.00 84 1017.9
20170628110843 58 309 1.0 10.0 0.00 0.00 0.00 83 1017.9
20170628110343 59 333 2.0 10.0 0.00 0.00 0.00 83 1017.9
20170628105843 59 329 3.0 10.0 0.00 0.00 0.00 83 1017.9
20170628105343 59 302 7.0 8.0 0.00 0.00 0.00 83 1017.8
20170628104843 59 309 2.0 8.0 0.00 0.00 0.00 83 1017.9
20170628104343 59 329 4.0 8.0 0.00 0.00 0.00 83 1017.9
20170628103843 59 334 3.0 8.0 0.00 0.00 0.00 83 1017.9
20170628103343 59 296 0.0 8.0 0.00 0.00 0.00 83 1017.8
20170628102843 59 315 2.0 8.0 0.00 0.00 0.00 83 1017.8
20170628102343 59 284 2.0 6.0 0.00 0.00 0.00 83 1017.7
20170628101844 59 313 0.0 6.0 0.00 0.00 0.00 83 1017.8
20170628101343 59 312 2.0 10.0 0.00 0.00 0.00 83 1017.8
20170628100843 59 319 5.0 10.0 0.00 0.00 0.00 83 1017.8
20170628100343 59 298 4.0 10.0 0.00 0.00 0.00 83 1017.8
20170628095843 59 343 4.0 7.0 0.00 0.00 0.00 83 1017.8
20170628095343 59 331 3.0 7.0 0.00 0.00 0.00 83 1017.7
20170628094844 59 296 0.0 7.0 0.00 0.00 0.00 82 1017.7
20170628094343 59 315 5.0 10.0 0.00 0.00 0.00 82 1017.8
20170628093843 59 331 2.0 10.0 0.00 0.00 0.00 82 1017.8
20170628093343 59 337 5.0 10.0 0.00 0.00 0.00 82 1017.7
20170628092843 59 337 7.0 8.0 0.00 0.00 0.00 82 1017.8
20170628092343 59 296 1.0 8.0 0.00 0.00 0.00 82 1017.7
20170628091343 59 343 1.0 7.0 0.00 0.00 0.00 82 1017.7
20170628090843 59 319 4.0 12.0 0.00 0.00 0.00 82 1017.7
20170628090343 59 322 6.0 12.0 0.00 0.00 0.00 82 1017.7
20170628085843 60 323 6.0 12.0 0.00 0.00 0.00 82 1017.7
20170628085343 59 308 6.0 10.0 0.00 0.00 0.00 82 1017.7
20170628084844 59 302 4.0 10.0 0.00 0.00 0.00 82 1017.7
20170628084343 60 294 5.0 10.0 0.00 0.00 0.00 82 1017.6
20170628083843 59 324 7.0 9.0 0.00 0.00 0.00 82 1017.6
20170628083345 60 317 4.0 10.0 0.00 0.00 0.00 82 1017.7
20170628082843 59 312 4.0 10.0 0.00 0.00 0.00 82 1017.7
20170628082343 60 329 4.0 10.0 0.00 0.00 0.00 82 1017.6
20170628081844 59 333 6.0 10.0 0.00 0.00 0.00 81 1017.7
20170628081343 59 324 7.0 10.0 0.00 0.00 0.00 81 1017.6
20170628080843 60 308 5.0 10.0 0.00 0.00 0.00 81 1017.6
20170628080343 60 324 6.0 10.0 0.00 0.00 0.00 81 1017.6
20170628075843 60 326 4.0 10.0 0.00 0.00 0.00 81 1017.6
20170628075343 60 320 5.0 11.0 0.00 0.00 0.00 81 1017.7
20170628074844 60 309 5.0 11.0 0.00 0.00 0.00 81 1017.8
20170628074343 60 315 6.0 11.0 0.00 0.00 0.00 81 1017.8
20170628073843 60 315 7.0 9.0 0.00 0.00 0.00 80 1017.9
20170628073343 60 316 5.0 9.0 0.00 0.00 0.00 80 1017.9
20170628072843 60 323 5.0 9.0 0.00 0.00 0.00 80 1017.9
20170628072343 60 310 6.0 9.0 0.00 0.00 0.00 80 1017.9
20170628071844 60 352 6.0 8.0 0.00 0.00 0.00 80 1017.9
20170628071343 60 294 3.0 8.0 0.00 0.00 0.00 80 1018.0
20170628070843 60 315 5.0 8.0 0.00 0.00 0.00 80 1018.0
20170628070344 60 310 4.0 7.0 0.00 0.00 0.00 80 1018.0
20170628065843 60 317 1.0 9.0 0.00 0.00 0.00 80 1017.9
20170628065343 60 338 4.0 9.0 0.00 0.00 0.00 80 1017.9
20170628064844 59 344 3.0 9.0 0.00 0.00 0.00 79 1018.0
20170628064343 60 338 6.0 9.0 0.00 0.00 0.00 79 1018.0
20170628063847 60 330 3.0 8.0 0.00 0.00 0.00 79 1017.9
20170628063343 60 330 3.0 8.0 0.00 0.00 0.00 79 1017.9
20170628062843 60 310 5.0 8.0 0.00 0.00 0.00 79 1017.9
20170628062343 60 298 4.0 7.0 0.00 0.00 0.00 79 1017.8
20170628061844 60 316 4.0 6.0 0.00 0.00 0.00 78 1017.9
20170628061343 60 295 2.0 6.0 0.00 0.00 0.00 78 1017.9
20170628060843 60 323 2.0 5.0 0.00 0.00 0.00 78 1017.9
20170628060343 59 326 0.0 5.0 0.00 0.00 0.00 77 1018.0
20170628055843 60 334 2.0 8.0 0.00 0.00 0.00 77 1017.9
20170628055343 60 295 3.0 8.0 0.00 0.00 0.00 76 1018.0
20170628054844 60 324 2.0 8.0 0.00 0.00 0.00 76 1018.0
20170628054343 60 319 1.0 10.0 0.00 0.00 0.00 76 1017.9
20170628053843 60 319 5.0 10.0 0.00 0.00 0.00 76 1018.0
20170628053343 60 317 3.0 10.0 0.00 0.00 0.00 76 1017.9
20170628052843 60 324 5.0 7.0 0.00 0.00 0.00 76 1018.0
20170628052343 60 287 4.0 11.0 0.00 0.00 0.00 76 1018.0
20170628051844 60 341 3.0 11.0 0.00 0.00 0.00 76 1017.9
20170628051343 60 323 4.0 11.0 0.00 0.00 0.00 76 1017.8
20170628050843 60 310 6.0 10.0 0.00 0.00 0.00 76 1017.9
20170628050343 61 322 4.0 10.0 0.00 0.00 0.00 76 1017.8
20170628044343 60 327 4.0 6.0 0.00 0.00 0.00 75 1017.8
20170628043843 60 294 3.0 6.0 0.00 0.00 0.00 75 1017.7
20170628043343 61 347 1.0 8.0 0.00 0.00 0.00 74 1017.6
20170628042843 61 305 0.0 8.0 0.00 0.00 0.00 74 1017.7
20170628042343 61 309 2.0 8.0 0.00 0.00 0.00 74 1017.6
20170628041844 61 319 5.0 8.0 0.00 0.00 0.00 74 1017.6
20170628041343 61 344 2.0 8.0 0.00 0.00 0.00 74 1017.6
20170628040843 61 327 1.0 11.0 0.00 0.00 0.00 74 1017.6
20170628040343 61 324 4.0 11.0 0.00 0.00 0.00 75 1017.5
20170628035843 61 313 3.0 11.0 0.00 0.00 0.00 75 1017.6
20170628035343 61 302 7.0 14.0 0.00 0.00 0.00 74 1017.5
20170628034844 62 308 8.0 14.0 0.00 0.00 0.00 73 1017.6
20170628034343 62 320 6.0 14.0 0.00 0.00 0.00 74 1017.6
20170628033843 62 326 7.0 11.0 0.00 0.00 0.00 74 1017.6
20170628033344 62 287 7.0 11.0 0.00 0.00 0.00 74 1017.6
20170628032843 63 295 6.0 12.0 0.00 0.00 0.00 73 1017.6
20170628032343 63 256 7.0 12.0 0.00 0.00 0.00 72 1017.6
20170628030343 63 316 6.0 13.0 0.00 0.00 0.00 66 1017.6
20170628025845 63 330 5.0 13.0 0.00 0.00 0.00 66 1017.6
20170628025343 63 292 7.0 13.0 0.00 0.00 0.00 66 1017.5
20170628023343 63 296 7.0 11.0 0.00 0.00 0.00 65 1017.6
20170628022843 63 308 6.0 11.0 0.00 0.00 0.00 65 1017.5
20170628022343 63 312 6.0 11.0 0.00 0.00 0.00 64 1017.5
20170628021847 63 317 6.0 9.0 0.00 0.00 0.00 63 1017.5
20170628021343 64 299 6.0 9.0 0.00 0.00 0.00 63 1017.5
20170628020843 64 313 6.0 10.0 0.00 0.00 0.00 62 1017.5
20170628020343 64 299 7.0 10.0 0.00 0.00 0.00 62 1017.5
20170628015843 64 317 7.0 10.0 0.00 0.00 0.00 62 1017.6
20170628015343 65 326 6.0 12.0 0.00 0.00 0.00 61 1017.6
20170628014843 66 298 7.0 12.0 0.00 0.00 0.00 60 1017.6
20170628014343 65 298 7.0 12.0 0.00 0.00 0.00 60 1017.7
20170628013842 65 312 6.0 11.0 0.00 0.00 0.00 60 1017.7
20170628013343 66 322 7.0 12.0 0.00 0.00 0.00 60 1017.7
20170628012843 65 282 6.0 12.0 0.00 0.00 0.00 60 1017.7
20170628012343 66 275 7.0 12.0 0.00 0.00 0.00 60 1017.8
20170628011844 66 327 8.0 12.0 0.00 0.00 0.00 60 1017.8
20170628011343 66 245 7.0 12.0 0.00 0.00 0.00 60 1017.9
20170628010843 66 275 7.0 13.0 0.00 0.00 0.00 60 1017.9
20170628010343 66 289 7.0 13.0 0.00 0.00 0.00 60 1018.0
20170628005843 66 305 8.0 13.0 0.00 0.00 0.00 59 1018.0
20170628005343 66 322 8.0 12.0 0.00 0.00 0.00 59 1018.1
20170628004844 66 299 9.0 14.0 0.00 0.00 0.00 59 1018.2
20170628004343 66 296 8.0 14.0 0.00 0.00 0.00 60 1018.2
20170628003843 66 310 8.0 14.0 0.00 0.00 0.00 60 1018.2
20170628003344 66 322 8.0 14.0 0.00 0.00 0.00 60 1018.2
20170628002842 66 303 10.0 15.0 0.00 0.00 0.00 60 1018.2
20170628002343 66 306 9.0 15.0 0.00 0.00 0.00 60 1018.3
20170628001844 66 317 9.0 15.0 0.00 0.00 0.00 61 1018.3
20170628001343 66 303 10.0 14.0 0.00 0.00 0.00 61 1018.4
20170628000842 66 316 9.0 14.0 0.00 0.00 0.00 61 1018.4
20170628000342 66 298 9.0 13.0 0.00 0.00 0.00 60 1018.4
20170627235842 67 310 8.0 13.0 0.00 0.00 0.00 61 1018.4
20170627235342 66 287 8.0 13.0 0.00 0.00 0.00 61 1018.5
20170627234843 67 289 8.0 12.0 0.00 0.00 0.00 61 1018.5
20170627234342 67 288 7.0 14.0 0.00 0.00 0.00 61 1018.5
20170627233843 66 280 8.0 14.0 0.00 0.00 0.00 61 1018.5
20170627231343 66 306 8.0 15.0 0.00 0.00 0.00 61 1018.6
20170627230842 67 292 9.0 15.0 0.00 0.00 0.00 61 1018.6
20170627230342 66 281 11.0 13.0 0.00 0.00 0.00 60 1018.6
20170627225842 67 323 9.0 13.0 0.00 0.00 0.00 61 1018.6
20170627225342 66 312 8.0 13.0 0.00 0.00 0.00 61 1018.6
20170627224843 67 329 7.0 11.0 0.00 0.00 0.00 61 1018.6
20170627224342 67 302 8.0 13.0 0.00 0.00 0.00 61 1018.6
20170627223842 66 309 7.0 13.0 0.00 0.00 0.00 61 1018.6
20170627223342 67 305 7.0 13.0 0.00 0.00 0.00 61 1018.6
20170627222842 67 274 8.0 12.0 0.00 0.00 0.00 61 1018.6
20170627222343 67 264 7.0 12.0 0.00 0.00 0.00 61 1018.7
20170627221844 67 296 6.0 12.0 0.00 0.00 0.00 62 1018.7
20170627221342 68 278 8.0 15.0 0.00 0.00 0.00 61 1018.7
20170627220842 67 285 8.0 15.0 0.00 0.00 0.00 61 1018.7
20170627220342 67 266 7.0 15.0 0.00 0.00 0.00 62 1018.7
20170627215842 67 282 8.0 10.0 0.00 0.00 0.00 62 1018.8
20170627215342 67 278 7.0 12.0 0.00 0.00 0.00 62 1018.8
20170627214844 67 280 6.0 12.0 0.00 0.00 0.00 61 1018.8
20170627214342 67 288 6.0 12.0 0.00 0.00 0.00 61 1018.9
20170627213842 68 281 8.0 12.0 0.00 0.00 0.00 61 1018.9
20170627213343 68 282 7.0 12.0 0.00 0.00 0.00 61 1019.0
20170627212843 68 275 8.0 14.0 0.00 0.00 0.00 61 1019.1
20170627212343 68 299 7.0 14.0 0.00 0.00 0.00 61 1019.1
20170627211843 68 292 8.0 14.0 0.00 0.00 0.00 61 1019.1
20170627211343 67 274 8.0 11.0 0.00 0.00 0.00 61 1019.2
20170627210842 67 281 7.0 11.0 0.00 0.00 0.00 62 1019.2
20170627210342 68 284 7.0 13.0 0.00 0.00 0.00 61 1019.2
20170627205843 68 294 9.0 13.0 0.00 0.00 0.00 60 1019.3
20170627205342 68 277 6.0 13.0 0.00 0.00 0.00 61 1019.2
20170627204843 68 310 7.0 12.0 0.00 0.00 0.00 61 1019.2
20170627204343 68 317 7.0 12.0 0.00 0.00 0.00 60 1019.2
20170627203842 68 291 9.0 14.0 0.00 0.00 0.00 60 1019.2
20170627203343 68 291 9.0 14.0 0.00 0.00 0.00 60 1019.3
20170627202842 69 306 8.0 14.0 0.00 0.00 0.00 61 1019.3
20170627202343 68 298 8.0 12.0 0.00 0.00 0.00 60 1019.3
20170627201843 68 278 7.0 12.0 0.00 0.00 0.00 61 1019.2
20170627201342 69 294 7.0 12.0 0.00 0.00 0.00 61 1019.2
20170627200843 68 271 7.0 12.0 0.00 0.00 0.00 59 1019.2
20170627200343 69 302 7.0 12.0 0.00 0.00 0.00 60 1019.2
20170627195842 69 260 8.0 10.0 0.00 0.00 0.00 60 1019.2
20170627195342 68 266 6.0 10.0 0.00 0.00 0.00 61 1019.2
20170627194843 69 271 7.0 13.0 0.00 0.00 0.00 60 1019.2
20170627194343 69 277 6.0 13.0 0.00 0.00 0.00 60 1019.2
20170627193843 69 273 8.0 13.0 0.00 0.00 0.00 60 1019.2
20170627193343 69 294 8.0 11.0 0.00 0.00 0.00 61 1019.2
20170627192842 68 267 8.0 11.0 0.00 0.00 0.00 63 1019.2
20170627192342 68 285 7.0 11.0 0.00 0.00 0.00 62 1019.2
20170627191843 68 329 7.0 10.0 0.00 0.00 0.00 62 1019.2
20170627191342 67 280 7.0 10.0 0.00 0.00 0.00 62 1019.2
20170627190843 68 281 8.0 12.0 0.00 0.00 0.00 62 1019.1
20170627190344 67 305 7.0 12.0 0.00 0.00 0.00 64 1019.1
20170627185842 66 336 6.0 12.0 0.00 0.00 0.00 64 1019.0
20170627185342 66 274 7.0 10.0 0.00 0.00 0.00 63 1019.0
20170627184843 66 327 7.0 13.0 0.00 0.00 0.00 65 1019.0
20170627184342 66 278 6.0 13.0 0.00 0.00 0.00 65 1019.0
20170627183842 66 319 7.0 13.0 0.00 0.00 0.00 63 1019.0
20170627183343 65 306 7.0 12.0 0.00 0.00 0.00 66 1019.0
20170627182842 65 313 7.0 12.0 0.00 0.00 0.00 68 1018.9
20170627182342 65 299 7.0 11.0 0.00 0.00 0.00 68 1019.0
20170627181843 64 284 7.0 11.0 0.00 0.00 0.00 71 1018.9
20170627181342 64 270 7.0 11.0 0.00 0.00 0.00 71 1018.9
20170627180842 63 329 7.0 13.0 0.00 0.00 0.00 73 1018.9
20170627180343 63 292 6.0 13.0 0.00 0.00 0.00 72 1018.9
20170627175842 63 323 8.0 13.0 0.00 0.00 0.00 74 1018.9
20170627175342 63 295 8.0 12.0 0.00 0.00 0.00 75 1018.9
20170627174843 63 317 8.0 12.0 0.00 0.00 0.00 77 1018.9
20170627174342 62 298 8.0 11.0 0.00 0.00 0.00 78 1018.9
20170627173843 62 310 7.0 11.0 0.00 0.00 0.00 80 1018.8
20170627173342 62 305 8.0 13.0 0.00 0.00 0.00 81 1018.9
20170627172842 62 277 7.0 13.0 0.00 0.00 0.00 81 1018.9
20170627172342 62 308 7.0 13.0 0.00 0.00 0.00 82 1018.9
20170627170842 62 312 8.0 12.0 0.00 0.00 0.00 83 1018.9
20170627163842 60 310 7.0 8.0 0.00 0.00 0.00 84 1019.0
20170627163342 61 296 5.0 13.0 0.00 0.00 0.00 84 1019.0
20170627162842 60 301 5.0 13.0 0.00 0.00 0.00 85 1019.0
20170627162342 60 296 8.0 13.0 0.00 0.00 0.00 85 1019.1
20170627161842 60 319 7.0 9.0 0.00 0.00 0.00 86 1019.1
20170627161342 60 313 7.0 9.0 0.00 0.00 0.00 86 1019.2
20170627160842 60 327 5.0 9.0 0.00 0.00 0.00 87 1019.2
20170627160342 60 295 6.0 9.0 0.00 0.01 0.00 87 1019.2
20170627155842 60 323 4.0 8.0 0.00 0.01 0.00 87 1019.1
20170627155342 59 330 6.0 10.0 0.00 0.01 0.00 88 1019.2
20170627154843 59 301 5.0 10.0 0.00 0.01 0.00 89 1019.1
20170627154342 59 302 4.0 10.0 0.00 0.01 0.00 89 1019.2
20170627153842 59 337 4.0 9.0 0.00 0.01 0.00 89 1019.1
20170627153342 59 320 6.0 9.0 0.00 0.01 0.00 90 1019.2
20170627152842 59 308 5.0 7.0 0.00 0.01 0.00 90 1019.2
20170627152342 59 331 5.0 7.0 0.00 0.01 0.00 91 1019.2
20170627151842 58 351 4.0 7.0 0.00 0.01 0.00 92 1019.2
20170627145842 58 308 3.0 5.0 0.00 0.01 0.00 94 1019.1
20170627145342 58 308 1.0 1.0 0.00 0.01 0.00 94 1019.1
20170627144843 58 0 0.0 5.0 0.00 0.01 0.00 95 1019.0
20170627144342 58 277 0.0 5.0 0.00 0.01 0.00 95 1019.0
20170627143842 58 319 1.0 5.0 0.00 0.01 0.00 95 1019.0
20170627143343 58 306 0.0 2.0 0.00 0.01 0.00 95 1019.0
20170627142842 58 0 1.0 2.0 0.00 0.01 0.00 96 1019.0
20170627142342 58 329 0.0 2.0 0.00 0.01 0.00 96 1019.1
20170627141843 57 302 0.0 2.0 0.00 0.01 0.00 96 1019.1
20170627141342 57 0 0.0 6.0 0.00 0.01 0.00 96 1019.0
20170627140842 57 15 0.0 6.0 0.00 0.01 0.00 96 1019.0
20170627140342 57 322 0.0 6.0 0.00 0.01 0.00 96 1018.9
20170627135842 57 65 2.0 2.0 0.00 0.01 0.00 96 1018.9